www.pogodaiklimat.ru
ПОГОДА в Истоне
Время
и дата
22:45 19.05
23:05 19.05
23:25 19.05
23:45 19.05
00:05 20.05
00:25 20.05
00:45 20.05
01:05 20.05
01:25 20.05
01:45 20.05
02:05 20.05
02:25 20.05
02:45 20.05
03:05 20.05
03:25 20.05
03:45 20.05
04:05 20.05
04:25 20.05
04:45 20.05
05:50 20.05
06:45 20.05
07:45 20.05
08:45 20.05
09:45 20.05
10:45 20.05
11:45 20.05
12:45 20.05
13:45 20.05
14:45 20.05
15:45 20.05
16:45 20.05
17:45 20.05
18:45 20.05
19:50 20.05
20:45 20.05
21:05 20.05
21:25 20.05
21:45 20.05
22:05 20.05
22:25 20.05
22:45 20.05
23:05 20.05
23:25 20.05
23:45 20.05
00:05 21.05
00:25 21.05
00:45 21.05
01:05 21.05
Ветер
(напр.,м/с)
Видим. Явления Облачность Т
(С)
Тd
(С)
f
(%)
Тe
(С)
Тes
(С)
Комфортность P
(гПа)
Po
(гПа)
Тmin
(С)
Tmax
(С)
R
(мм)
R24
(мм)
S
(см)
ЮВ 2 16 км ясно +14.9 +13.3 90 +15 +15 1014.5
ЮВ 2 16 км ясно +14.7 +13.3 91 +14 +14 1014.2
ЮВ 3 16 км ясно +14.6 +13.2 91 +14 +14 1014.2
ЮВ 3 16 км 2/2 660 м +14.5 +13.1 91 +14 +14 1014.2
В 3 16 км 2/2 660 м +14.1 +13.0 93 +13 +13 1014.2
В 2 16 км 8/8 690 м +14.2 +13.2 94 +14 +14 1014.5
ЮВ 2 16 км 10/10 690 м +14.2 +13.1 93 +14 +14 1014.2
штиль 0 16 км 5/5 660 м +13.7 +12.8 94 +13 +13 1014.2
штиль 0 16 км ясно +13.5 +12.7 95 +13 +13 1013.8
штиль 0 16 км 5/5 780 м +13.2 +12.5 96 +13 +13 1013.8
В 2 16 км 10/10 +13.2 +12.7 97 +12 +12 1013.8
В 2 16 км 8/8 +13.0 +12.4 96 +12 +12 1013.5
штиль 0 16 км 2/2 750 м +12.9 +12.3 96 +12 +12 1013.5
В 2 16 км 5/5 720 м +12.6 +11.9 95 +12 +12 1013.5
штиль 0 16 км 10/10 720 м +12.8 +12.1 96 +12 +12 1013.8
штиль 0 16 км 10/10 720 м +13.0 +12.4 96 +12 +12 1013.8
В 2 16 км 10/10 720 м +13.0 +12.3 96 +12 +12 1013.5
штиль 0 16 км 10/10 750 м +13.1 +12.4 96 +13 +13 1013.8
штиль 0 14 км 10/10 780 м +13.0 +12.0 94 +12 +12 1013.8
В 2 16 км 10/10 210 м +13.0 +13.0 100 +12 +12 1014.2
С 2 16 км 10/10 210 м +14.0 +13.0 94 +13 +13 1015.5
СВ 2 16 км 10/10 270 м +15.0 +13.0 88 +15 +15 1016.2
штиль 0 16 км 10/10 300 м +16.0 +14.0 88 +16 +16 1016.2
СЗ 2 16 км 10/10 390 м +18.0 +14.0 77 +19 +19 1015.9
штиль 0 16 км 8/8 660 м +20.0 +15.0 73 +22 +26 комфорт 1015.5
С 2 16 км 10/10 600 м +21.0 +16.0 73 +25 +25 комфорт 1015.5
С 2 13 км 10/10 630 м +21.0 +16.0 73 +25 +25 комфорт 1014.8
штиль 0 14 км 10/10 690 м +21.0 +16.0 73 +24 +24 комфорт 1014.5
СВ 2 16 км 10/10 750 м +23.0 +16.0 65 +27 +27 душно 1014.2
СВ 2 16 км 5/5 750 м +23.0 +16.0 65 +27 +34 душно 1013.8
ЮВ 2 16 км 5/5 810 м +23.0 +17.0 69 +28 +32 душно 1013.5
штиль 0 16 км ясно +22.0 +17.0 73 +26 +32 душно 1013.2
штиль 0 16 км ясно +22.0 +17.0 73 +26 +28 душно 1013.2
штиль 0 16 км ясно +19.0 +17.0 88 +20 +20 1013.5
штиль 0 16 км ясно +18.0 +17.0 94 +18 +18 1014.2
штиль 0 14 км ясно +17.3 +16.3 94 +17 +17 1014.2
штиль 0 16 км ясно +16.9 +16.3 96 +17 +17 1014.5
В 2 16 км ясно +16.6 +15.9 96 +17 +17 1014.5
штиль 0 16 км ясно +16.7 +15.9 95 +17 +17 1014.2
ЮВ 2 16 км ясно +16.6 +16.1 97 +17 +17 1013.8
ЮВ 2 16 км ясно +16.1 +15.6 97 +16 +16 1013.8
ЮВ 2 16 км ясно +16.3 +15.7 96 +16 +16 1013.8
Ю 2 16 км ясно +16.0 +15.4 96 +16 +16 1013.8
Ю 2 16 км ясно +15.8 +15.4 97 +16 +16 1013.8
штиль 0 16 км ясно +15.5 +15.2 98 +15 +15 1013.8
ЮВ 2 14 км 5/5 180 м +15.4 +15.2 99 +15 +15 1013.8
ЮВ 2 16 км 10/10 120 м +16.1 +15.9 99 +16 +16 1013.5
Ю 3 11 км 10/10 90 м +16.1 +15.9 99 +16 +16 1013.5
Местоположение метеостанции Newman Field Airport: широта 38.8000 долгота -76.0700 высота над уровнем моря 22 м.
В архиве по умолчанию представлена погода в Истоне за последние 1-2 суток. Обновление информации о фактической погоде в базе происходит ежечасно! Архивные данные за месяц целиком и за предыдущие месяцы Вы можете получить, выбрав интересующий диапазон дат из раскрывающегося списка и нажав кнопку "Ввод!".
Внимание! Архив погоды МЕТАР в базе сайта по станциям, не включенным в климатический монитор, хранится не более 60 дней. Нет смысла пытаться выбрать более раннюю дату.
*Определитесь, кто Вы:
Внимание! Время в таблицах - местное (без учета летнего времени). Для получения всемирного времени необходимо вычесть поправку, которая равна -5 ч.
Смотрите также архив погоды в соседних городах и на ближайших метеорологических станциях:
Партнеры нашего сайта:      
Пояснения к столбцам:
  • Ветер - указаны скорость ветра в м/с - средняя за 10 мин, порывы в срок и между сроками (в фигурных скобках) и направление, откуда дует ветер: С - северный,
  • СВ - северо-восточный, В - восточный, ЮВ - юго-восточный, Ю - южный, ЮЗ - юго-западный, З - западный, СЗ - северо-западный.
  • Видимость - горизонтальная дальность видимости в метрах или километрах. При видимости от 1 до 10 км при отсутствии осадков обычно наблюдается дымка, при ухудшении видимости до 1 км и менее - туман. В сухую погоду видимость может ухудшаться дымом, пылью или мглою.
  • Явления - указаны атмосферные явления, наблюдавшиеся в срок или в последний час перед сроком; фигурными скобками обозначены явления, наблюдавшиеся между сроками (за 1-3 часа до срока); квадратными скобками обозначены град или гололедные отложения с указанием их диаметра в мм.
  • Облачность - указаны через наклонную черту общая и нижняя облачность в баллах и высота нижней границы облаков в метрах; квадратными скобками обозначены формы облаков: Ci - перистые, Cs - перисто-слоистые, Cc - перисто-кучевые, Ac - высококучевые, As - высокослоистые, Sc - слоисто-кучевые, Ns - слоисто-дождевые, Cu - кучевые, Cb - кучево-дождевые. Подробнее классификацию облаков см. в Атласе облаков (PDF).
  • T - Температура воздуха - температура, измеренная на высоте 2 м над землей.
  • Td - Температура точки росы - температура, при понижении до которой содержащийся в воздухе водяной пар достигнет насыщения.
  • f - Относительная влажность воздуха - влажноcть воздуха, измеренная на высоте 2 м над землей.
  • Te - Эффективная температура - температура, которую ощущает одетый по сезону человек в тени. Характеристика душности погоды. При расчете учитывается влияние влажности воздуха и скорости ветра на теплоощущения человека.
  • Tes - Эффективная температура на солнце - температура, которую ощущает человек, с поправкой на солнечный нагрев. Характеристика знойности погоды. Зависит от высоты солнца над горизонтом, облачности и скорости ветра. Ночью, в пасмурную погоду, а также при ветре 12 м/с и более поправка равна нулю.
  • P - Атмосферное давление - приведенное к уровню моря атмосферное давление.
  • Po - Атмосферное давление - измеренное на уровне метеостанции атмосферное давление.
  • Tmin - Минимальная температура - минимум температуры воздуха на высоте 2 м над землей.
  • Tmax - Максимальная температура - максимум температуры воздуха на высоте 2 м над землей.
  • R - Количество осадков - Количество выпавших осадков за период времени, мм. При наведении курсора мыши на число - период времени, за который выпало указанное количество осадков.
  • R24 - Количество осадков - Количество выпавших осадков за 24 часа, мм.
  • S - Снежный покров - Высота снежного покрова, см. При наведении курсора мыши на число - состояние снежного покрова и степень покрытия местности в баллах.